Change the Weather History Date:

Friday, October 21, 2011

  Actual Average Record
Temperature  
Mean Temperature 47 °F 55 °F  
Max Temperature 58 °F 67 °F 88 °F (1963)
Min Temperature 35 °F 43 °F 21 °F (1952)
Degree Days  
Heating Degree Days 18 11  
Month to date heating degree days 165 166  
Since 1 July heating degree days 245 220  
Cooling Degree Days 0 0  
Month to date cooling degree days 2 15  
Year to date cooling degree days 1285 1150  
Moisture  
Dew Point 37 °F    
Average Humidity 70    
Maximum Humidity 92    
Minimum Humidity 47    
Precipitation  
Precipitation 0.00 in 0.11 in 0.99 in (2005)
Month to date precipitation 2.06 2.15  
Year to date precipitation 52.62 36.79  
Sea Level Pressure  
Sea Level Pressure 30.08 in    
Wind  
Wind Speed 5 mph (SW)    
Max Wind Speed 15 mph    
Max Gust Speed 20 mph    
Visibility 10 miles    
Events      
T = Trace of Precipitation, MM = Missing Value Source: NWS Daily Summary

Daily Weather History Graph

Daily Weather History Graph

Search for Another Location

Airport or City:

Trip Planner

Search our weather history database for the weather conditions in past years. The results will help you decide how hot, cold, wet, or windy it might be!

Date:

Astronomy

Oct. 21, 2011 Rise Set
Actual Time 7:53 AM EDT 6:53 PM EDT
Civil Twilight 7:27 AM EDT 7:20 PM EDT
Nautical Twilight 6:56 AM EDT 7:51 PM EDT
Astronomical Twilight 6:25 AM EDT 8:21 PM EDT
Moon 1:48 AM EDT (10/21) 3:33 PM EDT (10/21)
Length of Visible Light 11h 53m
Length of Day
10h 59m
Waning Crescent, 34% of the Moon is Illuminated
Oct 21
Waning Crescent
Oct 26
New
Nov 2
First Quarter
Nov 10
Full
Nov 18
Last Quarter

Hourly Weather History & Observations

Time (EDT) Temp. Windchill Dew Point Humidity Pressure Visibility Wind Dir Wind Speed Gust Speed Precip Events Conditions
12:53 AM 44.1 °F 42.5 °F 37.9 °F 79% 30.00 in 10.0 mi WSW 3.5 mph - N/A   Overcast
1:53 AM 44.1 °F 40.1 °F 37.9 °F 79% 30.00 in 10.0 mi SSW 6.9 mph - N/A   Overcast
2:53 AM 43.0 °F 38.2 °F 37.9 °F 82% 30.01 in 10.0 mi SW 8.1 mph - N/A   Overcast
3:53 AM 39.0 °F 34.8 °F 36.0 °F 89% 30.01 in 10.0 mi SW 5.8 mph - N/A   Clear
4:53 AM 37.0 °F 33.3 °F 35.1 °F 93% 30.02 in 10.0 mi SW 4.6 mph - N/A   Clear
5:53 AM 37.0 °F 32.4 °F 34.0 °F 89% 30.04 in 10.0 mi SW 5.8 mph - N/A   Clear
6:53 AM 36.0 °F 32.1 °F 34.0 °F 93% 30.06 in 10.0 mi SW 4.6 mph - N/A   Clear
7:53 AM 36.0 °F 32.1 °F 34.0 °F 93% 30.07 in 10.0 mi WSW 4.6 mph - N/A   Clear
8:53 AM 39.0 °F 36.8 °F 36.0 °F 89% 30.09 in 10.0 mi Variable 3.5 mph - N/A   Clear
9:53 AM 45.0 °F 41.8 °F 37.9 °F 76% 30.10 in 10.0 mi WSW 5.8 mph - N/A   Clear
11:53 AM 50.0 °F - 39.0 °F 66% 30.13 in 10.0 mi Variable 4.6 mph - N/A   Partly Cloudy
12:53 PM 55.0 °F - 39.0 °F 55% 30.12 in 10.0 mi West 8.1 mph - N/A   Partly Cloudy
1:53 PM 55.9 °F - 37.9 °F 51% 30.10 in 10.0 mi West 9.2 mph - N/A   Mostly Cloudy
2:53 PM 55.9 °F - 37.0 °F 49% 30.09 in 10.0 mi SW 8.1 mph - N/A   Mostly Cloudy
3:53 PM 57.9 °F - 39.0 °F 49% 30.09 in 10.0 mi WSW 10.4 mph 18.4 mph N/A   Mostly Cloudy
4:53 PM 57.0 °F - 37.0 °F 47% 30.09 in 10.0 mi SW 10.4 mph - N/A   Clear
5:53 PM 55.9 °F - 36.0 °F 47% 30.10 in 10.0 mi West 5.8 mph - N/A   Clear
6:53 PM 53.1 °F - 37.0 °F 55% 30.11 in 10.0 mi WSW 3.5 mph - N/A   Clear
7:53 PM 48.0 °F - 37.0 °F 66% 30.13 in 10.0 mi SW 3.5 mph - N/A   Clear
8:53 PM 45.0 °F 42.6 °F 37.9 °F 76% 30.14 in 10.0 mi SW 4.6 mph - N/A   Clear
9:53 PM 41.0 °F - 37.0 °F 86% 30.14 in 10.0 mi Calm Calm - N/A   Clear
11:53 PM 37.9 °F - 36.0 °F 93% 30.14 in 10.0 mi Calm Calm - N/A   Clear